www.pogodaiklimat.ru
ПОГОДА в Гояния аэропорту
Время
(UTC), дата
22 13.04
23 13.04
00 14.04
01 14.04
02 14.04
03 14.04
04 14.04
05 14.04
06 14.04
07 14.04
08 14.04
09 14.04
10 14.04
11 14.04
12 14.04
13 14.04
14 14.04
15 14.04
16 14.04
17 14.04
18 14.04
19 14.04
20 14.04
21 14.04
22 14.04
23 14.04
00 15.04
01 15.04
02 15.04
03 15.04
04 15.04
05 15.04
06 15.04
07 15.04
08 15.04
09 15.04
10 15.04
11 15.04
12 15.04
13 15.04
14 15.04
15 15.04
16 15.04
17 15.04
18 15.04
19 15.04
20 15.04
21 15.04
22 15.04
23 15.04
00 16.04
01 16.04
02 16.04
03 16.04
04 16.04
05 16.04
06 16.04
07 16.04
08 16.04
09 16.04
10 16.04
11 16.04
12 16.04
13 16.04
14 16.04
15 16.04
16 16.04
17 16.04
18 16.04
19 16.04
20 16.04
21 16.04
22 16.04
23 16.04
00 17.04
01 17.04
02 17.04
03 17.04
04 17.04
05 17.04
06 17.04
07 17.04
08 17.04
09 17.04
10 17.04
11 17.04
12 17.04
13 17.04
14 17.04
15 17.04
16 17.04
17 17.04
18 17.04
19 17.04
20 17.04
21 17.04
22 17.04
23 17.04
00 18.04
01 18.04
02 18.04
03 18.04
04 18.04
05 18.04
06 18.04
07 18.04
08 18.04
09 18.04
10 18.04
11 18.04
12 18.04
13 18.04
14 18.04
15 18.04
16 18.04
17 18.04
18 18.04
19 18.04
20 18.04
21 18.04
22 18.04
23 18.04
00 19.04
01 19.04
02 19.04
03 19.04
04 19.04
05 19.04
06 19.04
07 19.04
08 19.04
09 19.04
10 19.04
11 19.04
12 19.04
13 19.04
14 19.04
15 19.04
16 19.04
17 19.04
18 19.04
19 19.04
20 19.04
21 19.04
22 19.04
23 19.04
00 20.04
01 20.04
02 20.04
03 20.04
04 20.04
05 20.04
06 20.04
07 20.04
08 20.04
09 20.04
10 20.04
11 20.04
12 20.04
13 20.04
14 20.04
15 20.04
16 20.04
17 20.04
18 20.04
19 20.04
20 20.04
21 20.04
22 20.04
23 20.04
Ветер
(напр.,м/с)
Видим. Явления Облачность Т
(С)
Тd
(С)
f
(%)
Тe
(С)
Тes
(С)
Комфортность P
(гПа)
Po
(гПа)
Тmin
(С)
Tmax
(С)
R
(мм)
R24
(мм)
S
(см)
ЮВ 3 10 км ясно +27.0 +16.0 51 +30 +30 душно 1016.0 933.3
ЮВ 3 10 км ясно +24.0 +17.0 65 +28 +28 душно 1016.0 932.5
ЮВ 2 20 км 5/0 +24.5 +16.1 57 +28 +28 душно 1017.0 930.8 +30.6
ЮВ 3 10 км ясно +22.0 +16.0 69 +26 +26 душно 1018.0 933.8
В 2 10 км ясно +22.0 +16.0 69 +26 +26 душно 1018.0 933.8
нст 1 20 км ясно +20.5 +16.6 78 +26 +26 душно 1018.0 931.6
нст 1 10 км ясно +19.0 +18.0 94 +22 +22 комфорт 1018.0 933.0
СЗ 1 10 км ясно +18.0 +17.0 94 +19 +19 1017.0 931.8
СЗ 2 20 км ясно +17.9 +16.8 94 +19 +19 1017.0 930.2
штиль 0 10 км ясно +18.0 +15.0 83 +18 +18 1016.0 930.8
нст 1 10 км ясно +18.0 +15.0 83 +19 +19 1016.0 930.8
штиль 0 20 км 6/0 +16.7 +15.4 88 +17 +17 1017.0 930.2
ЮВ 3 10 км ясно +17.0 +15.0 88 +17 +17 1017.0 931.4
ЮВ 3 10 км ясно +19.0 +16.0 83 +21 +23 комфорт 1018.0 932.9
ЮВ 3 20 км 4/0
[Ci fib]
+22.2 +15.2 64 +25 +31 комфорт 1018.0 931.9 +16.7
В 4 10 км ясно +27.0 +17.0 54 +31 +39 душно 1019.0 936.1
В 5 10 км 2/2 1050 м +29.0 +15.0 43 +32 +38 душно 1018.0 935.6
В 5 20 км 3/1 1000 м
[Cu med, cong Ci fib]
+29.1 +15.8 45 +32 +40 душно 1018.0 931.5
С 4 10 км 2/2 1200 м +30.0 +15.0 40 +32 +42 жарко 1017.0 935.0
В 4 10 км 2/2 1350 м +30.0 +14.0 38 +32 +40 жарко 1016.0 934.0
З 3 20 км 9/1 1500 м
[Cu hum]
+29.1 +14.8 43 +32 +40 душно 1015.0 929.0
СВ 4 10 км ясно +30.0 +14.0 38 +32 +35 жарко 1015.0 933.1
В 4 10 км ясно +29.0 +15.0 43 +32 +33 душно 1015.0 932.9
В 4 20 км 5/1 1500 м
[Sc diur, vesp]
+28.2 +15.4 45 +31 +31 душно 1015.0 928.7
В 4 10 км ясно +26.0 +16.0 54 +29 +29 душно 1016.0 933.0
В 4 10 км ясно +24.0 +16.0 61 +27 +27 жарко 1016.0 932.5
ЮВ 3 20 км ясно +23.6 +16.0 61 +27 +27 жарко 1017.0 930.3 +30.0
нст 1 10 км ясно +23.0 +16.0 65 +27 +27 душно 1017.0 933.1
СЗ 2 10 км ясно +20.0 +18.0 88 +24 +24 комфорт 1017.0 932.4
З 2 20 км ясно +21.2 +17.1 78 +26 +26 душно 1018.0 931.1
ЮВ 1 10 км ясно +21.0 +17.0 78 +26 +26 душно 1017.0 932.6
ЮВ 1 10 км ясно +20.0 +17.0 83 +24 +24 комфорт 1017.0 932.3
С 1 20 км ясно +18.5 +16.9 88 +22 +22 комфорт 1016.0 930.0
штиль 0 10 км ясно +19.0 +17.0 88 +20 +20 1016.0 931.1
СВ 2 10 км ясно +19.0 +16.0 83 +21 +21 комфорт 1017.0 932.0
штиль 0 20 км 1/0 +17.8 +16.3 88 +18 +18 1017.0 930.3
штиль 0 10 км ясно +19.0 +16.0 83 +20 +21 1017.0 932.0
ЮВ 3 10 км ясно +20.0 +17.0 83 +23 +25 комфорт 1018.0 933.2
нст 1 20 км 1/0 +23.3 +17.8 73 +28 +37 душно 1019.0 932.0 +17.8
В 5 10 км ясно +27.0 +16.0 51 +30 +36 душно 1019.0 936.0
В 4 10 км ясно +28.0 +18.0 55 +33 +43 очень
душно
1018.0 935.4
нст 2-7 20 км 4/4 1500 м
[Cu med, cong]
+28.0 +16.0 48 +31 +49 душно 1018.0 931.1
нст 2 10 км 5/5 1350 м +29.0 +16.0 45 +32 +41 душно 1017.0 934.7
ЮВ 3 10 км 5/5 1350 м +30.0 +16.0 43 +33 +39 душно 1016.0 934.1
нст 0 20 км 4/4 1000 м
[Cu med, cong]
+29.9 +15.1 40 +32 +36 жарко 1015.0 928.6
ЮВ 3 10 км 5/5 1350 м +29.0 +15.0 43 +32 +34 душно 1015.0 932.9
ЮВ 3 10 км 5/2 1200 м
[Ac]
+28.0 +15.0 45 +31 +31 душно 1015.0 932.6
ЮВ 2 20 км зарница 6/3 1000 м
[Cb cap]
+26.9 +16.1 51 +30 +30 душно 1015.0 928.6
ЮВ 2 10 км 5/2 1200 м
[Ac]
+26.0 +16.0 54 +29 +29 душно 1015.0 932.1
штиль 0 10 км ясно +24.0 +18.0 69 +28 +28 душно 1016.0 932.5
ЮВ 3 20 км ясно +23.8 +16.5 65 +28 +28 душно 1016.0 930.0 +30.0
З 2 10 км ясно +22.0 +18.0 78 +27 +27 душно 1017.0 932.9
СЗ 2 10 км ясно +22.0 +19.0 83 +27 +27 душно 1017.0 933.0
З 2 20 км ясно +21.5 +17.4 73 +26 +26 душно 1017.0 930.4
штиль 0 10 км ясно +21.0 +17.0 78 +25 +25 комфорт 1017.0 932.6
нст 1 10 км ясно +21.0 +18.0 83 +26 +26 душно 1016.0 931.7
СЗ 2 20 км ясно +19.7 +17.5 88 +24 +24 комфорт 1016.0 929.7
штиль 0 10 км ясно +20.0 +17.0 83 +23 +23 комфорт 1016.0 931.4
штиль 0 10 км ясно +19.0 +17.0 88 +20 +20 1016.0 931.1
ЮВ 1 20 км 6/0
[Ci]
+18.8 +16.8 88 +22 +22 комфорт 1016.0 929.9
В 2 10 км ясно +19.0 +17.0 88 +21 +21 комфорт 1017.0 932.0
ЮВ 3 10 км ясно +21.0 +17.0 78 +25 +28 комфорт 1017.0 932.6
ЮВ 2 20 км 6/0 +23.3 +17.6 73 +28 +35 душно 1018.0 931.4 +18.8
нст 1 10 км ясно +27.0 +17.0 54 +31 +44 душно 1018.0 935.1
СВ 3 10 км ясно +28.0 +17.0 51 +32 +45 душно 1018.0 935.4
нст 0 20 км 4/4 1000 м
[Cu med, cong]
+28.2 +16.0 48 +31 +38 душно 1017.0 930.5
нст 3 10 км 5/5 1350 м +28.0 +15.0 45 +31 +38 душно 1016.0 933.5
ЮВ 3 10 км 5/5 1350 м +29.0 +15.0 43 +32 +37 душно 1015.0 932.9
нст 0 20 км 4/4 1000 м
[Cu med, cong]
+29.8 +15.8 43 +33 +38 душно 1014.0 928.2
нст 2 10 км 2/2 1350 м +30.0 +15.0 40 +32 +36 жарко 1014.0 932.2
В 3 10 км 2/2 1350 м +29.0 +14.0 40 +31 +32 жарко 1014.0 931.9
В 3 20 км 3/1 1000 м
[Sc diur, vesp]
+27.8 +15.3 45 +31 +31 душно 1014.0 927.5
В 3 10 км ясно +26.0 +16.0 54 +29 +29 душно 1014.0 931.2
штиль 0 10 км ясно +24.0 +18.0 69 +28 +28 душно 1014.0 930.7
ЮВ 2 20 км ясно +23.9 +16.8 65 +28 +28 душно 1015.0 928.7 +29.8
ЮВ 1 10 км ясно +23.0 +17.0 69 +28 +28 душно 1016.0 932.2
ЮВ 2 10 км ясно +23.0 +17.0 69 +28 +28 душно 1016.0 932.2
штиль 0 20 км ясно +21.8 +18.2 78 +27 +27 душно 1016.0 929.4
нст 1 10 км ясно +22.0 +16.0 69 +26 +26 душно 1016.0 931.9
нст 1 10 км ясно +22.0 +16.0 69 +26 +26 душно 1015.0 931.0
нст 0 20 км 1/1 1000 м
[Sc]
+21.7 +16.3 69 +26 +26 душно 1015.0 928.8
нст 1 10 км ясно +21.0 +17.0 78 +26 +26 душно 1015.0 930.8
С 1 10 км ясно +22.0 +16.0 69 +26 +26 душно 1015.0 931.0
штиль 0 20 км 6/1 1000 м
[Sc]
+20.5 +16.2 73 +24 +24 комфорт 1016.0 929.6
ЮЗ 4 10 км 8/2 690 м
[Ac]
+21.0 +17.0 78 +25 +25 комфорт 1018.0 933.5
ЮВ 3 10 км 8/5 1350 м
[Ac]
+22.0 +18.0 78 +27 +28 душно 1019.0 934.7
ЮВ 5 20 км 10/4 1000 м
[Sc Ac und Ci]
+21.3 +17.8 83 +25 +27 комфорт 1019.0 932.5 +20.5
ЮВ 5 10 км 8/2 1350 м
[Ac]
+21.0 +18.0 83 +25 +28 комфорт 1019.0 934.5
ЮВ 4 10 км 8/2 1350 м
[Ac]
+22.0 +18.0 78 +27 +32 душно 1019.0 934.7
В 3 18 км осадки на расстоянии 10/1 1000 м
[Cu med, cong Ac und Ci]
+23.2 +17.8 73 +28 +36 душно 1018.0 931.3
нст 2 10 км ясно +26.0 +18.0 61 +30 +47 душно 1016.0 933.1
нст 3 10 км 2/2 600 м +27.0 +17.0 54 +31 +40 душно 1015.0 932.4
С 3 20 км ясно +27.8 +17.5 55 +33 +39 очень
душно
1014.0 928.1
СЗ 3 10 км 2/2 900 м +28.0 +17.0 51 +32 +35 душно 1014.0 931.7
СЗ 3 10 км 2/2 900 м +28.0 +18.0 55 +33 +34 очень
душно
1013.0 930.9
СЗ 2 20 км 10/1 1000 м
[Cu med, cong]
+26.6 +17.1 54 +31 +31 душно 1014.0 927.7
С 2 10 км 2/2 1050 м +26.0 +18.0 61 +30 +30 душно 1014.0 931.2
С 2 10 км 2/2 1200 м +23.0 +19.0 78 +29 +29 очень
душно
1015.0 931.4
штиль 0 20 км 9/1 1000 м
[Cu med, cong Ac trans Ci]
+24.4 +18.7 74 +29 +29 душно 1016.0 929.3 +28.0
С 2 10 км ясно +22.0 +19.0 83 +27 +27 душно 1016.0 932.0
СЗ 2 10 км 5/2 600 м
[Ac]
+21.0 +19.0 88 +26 +26 душно 1016.0 931.8
СЗ 2 20 км 10/1 600 м
[Sc Ac trans Ci]
+21.1 +19.4 88 +26 +26 душно 1016.0 930.1
З 2 10 км 8/5 780 м
[Ac]
+21.0 +19.0 88 +26 +26 душно 1016.0 931.8
ЮВ 3 10 км 8/2 1200 м
[Ac]
+21.0 +19.0 88 +26 +26 душно 1016.0 931.8
В 3 20 км 10/3 1000 м
[Sc Ac und Ci]
+20.4 +18.6 94 +24 +24 комфорт 1015.0 929.1
ЮВ 3 10 км ясно +20.0 +19.0 94 +24 +24 комфорт 1015.0 930.6
нст 1 10 км ясно +20.0 +19.0 94 +24 +24 комфорт 1015.0 930.6
З 2 20 км 10/3 1000 м
[Sc Ac und Ci]
+20.0 +18.8 94 +24 +24 комфорт 1016.0 929.6
С 2 10 км 8/2 1200 м
[Ac]
+20.0 +19.0 94 +24 +24 комфорт 1017.0 932.4
З 1 10 км ясно +21.0 +19.0 88 +27 +30 душно 1017.0 932.7
З 1 20 км 10/10 600 м
[Ac]
+23.4 +19.4 78 +29 +33 душно 1017.0 930.7 +19.9
нст 1 10 км 2/2 900 м +25.0 +20.0 74 +31 +41 очень
душно
1017.0 933.8
нст 1 10 км 2/2 900 м +27.0 +19.0 62 +32 +47 очень
душно
1017.0 934.3
З 4 10 км слаб. дождь 9/5 1000 м
[Cu med, cong]
+24.6 +19.3 69 +30 +36 очень
душно
1016.0 929.7
З 3 10 км ливневой дождь 8/8 690 м
[Cb]
+26.0 +20.0 70 +32 +35 очень
душно
1015.0 932.2
В 3 10 км ливневой дождь 5/5 1080 м
[Cb]
+27.0 +19.0 62 +32 +38 очень
душно
1014.0 931.6
В 4 18 км слаб. дождь 8/8 1000 м
[Cu med, cong Ac trans]
+24.0 +19.0 74 +29 +30 душно 1014.0 927.8 0.5
С 5 10 км гроза без осадков 5/5 1080 м
[Ac Cb]
+21.0 +19.0 88 +26 +27 душно 1014.0 929.9
В 2 10 км ливневой дождь 8/2 1200 м
[Ac Cb]
+23.0 +19.0 78 +29 +30 очень
душно
1014.0 930.5
СЗ 2 20 км {гроза, дождь} 9/1 1000 м
[Cu med, cong Ac trans Ci]
+22.2 +19.6 88 +28 +28 душно 1015.0 928.3
С 3 10 км 8/2 1200 м
[Ac]
+22.0 +20.0 88 +28 +28 душно 1014.0 930.2
штиль 0 10 км 8/2 1200 м
[Ac]
+22.0 +20.0 88 +28 +28 душно 1015.0 931.2
СВ 1 20 км {гроза, дождь} 6/0
[Ac As Ci]
+21.1 +19.4 88 +27 +27 душно 1016.0 929.5 +27.3 12
СЗ 2 10 км ясно +20.0 +19.0 94 +24 +24 комфорт 1016.0 931.5
штиль 0 10 км ясно +20.0 +19.0 94 +23 +23 комфорт 1016.0 931.5
З 1 20 км 4/0
[Ci fib]
+19.9 +19.3 94 +24 +24 комфорт 1016.0 930.0
СЗ 1 10 км 2/2 90 м +19.0 +19.0 100 +22 +22 комфорт 1016.0 931.2
СЗ 1 900 м туман 8/8 90 м
[St]
+19.0 +19.0 100 +22 +22 комфорт 1016.0 931.2
СЗ 1 <100 м местами туман поземный ?/? +18.8 +18.5 100 +21 +21 комфорт 1016.0 929.5
С 1 2000 м дымка 2/2 90 м
[Frnb]
+19.0 +19.0 100 +22 +22 комфорт 1016.0 931.2
С 2 10 км туман поземный 2/2 90 м +18.0 +18.0 100 +19 +19 1015.0 930.0
З 1 2000 м местами туман поземный 9/1 50 м
[St Ac trans Ci]
+18.3 +18.0 100 +19 +19 1016.0 929.6
штиль 0 800 м туман 5/5 30 м
[Ac]
+19.0 +18.0 94 +21 +21 комфорт 1017.0 932.1
СЗ 1 10 км туман поземный 5/2 60 м
[Ac]
+19.0 +19.0 100 +22 +24 комфорт 1018.0 933.0
С 2 20 км {туман} 4/1 600 м
[Cu med, cong Ac trans Ci fib]
+21.6 +20.1 88 +28 +33 очень
душно
1018.0 931.4 +18.8 13 13.0
В 3 10 км 2/2 600 м +26.0 +20.0 70 +32 +40 очень
душно
1018.0 935.0
СВ 2 10 км 5/5 780 м +26.0 +19.0 65 +31 +39 очень
душно
1018.0 935.0
С 3 20 км 8/6 1000 м
[Cu med, cong Ac trans]
+27.3 +18.4 58 +32 +34 очень
душно
1017.0 930.4
ЮВ 2 10 км 5/5 1200 м +26.0 +18.0 61 +30 +39 душно 1016.0 933.1
нст 2 10 км 5/5 1200 м +28.0 +18.0 55 +33 +40 очень
душно
1015.0 932.7
нст 0 20 км 4/4 1000 м
[Cu med, cong]
+28.1 +16.3 49 +31 +35 душно 1014.0 928.1
ЮВ 3 10 км 5/5 1350 м +28.0 +18.0 55 +33 +35 очень
душно
1014.0 931.8
Ю 2 10 км 2/2 1350 м +29.0 +17.0 48 +33 +34 очень
душно
1014.0 932.0
Ю 3 20 км 1/0 1000 м +27.7 +15.6 48 +31 +31 душно 1014.0 928.1
З 2 10 км 5/2 1350 м
[Ac]
+26.0 +16.0 54 +29 +29 душно 1015.0 932.1
С 2 10 км ясно +23.0 +19.0 78 +29 +29 очень
душно
1015.0 931.4
С 3 20 км 3/0 +22.3 +18.1 78 +27 +27 душно 1016.0 930.0 +29.0
СЗ 2 10 км 5/2 1200 м
[Ac]
+21.0 +19.0 88 +26 +26 душно 1017.0 932.7
СЗ 2 10 км 2/2 1200 м +20.0 +18.0 88 +24 +24 комфорт 1017.0 932.4
нст 0 20 км 9/0 +20.5 +18.5 88 +27 +27 душно 1017.0 930.5
СЗ 2 10 км 8/2 600 м
[Ac]
+20.0 +19.0 94 +24 +24 комфорт 1017.0 932.4
С 2 10 км 2/2 1350 м +20.0 +19.0 94 +24 +24 комфорт 1016.0 931.5
С 2 10 км 2/2 1350 м +20.0 +19.0 94 +24 +24 комфорт 1016.0 931.5
штиль 0 10 км ясно +19.0 +18.0 94 +21 +21 комфорт 1016.0 931.2
штиль 0 10 км 2/2 900 м +19.0 +18.0 94 +21 +21 комфорт 1016.0 931.2
С 2 20 км 4/1 200 м
[St Ac trans Ci fib]
+18.3 +17.2 94 +19 +19 1016.0 929.9
нст 1 н/о туман поземный 5/2 600 м
[Ac]
+18.0 +18.0 100 +19 +19 1017.0 931.8
нст 1 10 км 5/2 600 м
[Ac]
+20.0 +18.0 88 +24 +26 комфорт 1018.0 933.3
нст 1 10 км ясно +22.0 +18.0 78 +27 +35 душно 1018.0 933.8
В 2 10 км ясно +24.0 +18.0 69 +28 +40 душно 1019.0 935.3
нст 2 10 км 2/2 1200 м +25.0 +17.0 61 +29 +41 душно 1018.0 934.6
нст 2 20 км 1/1 1000 м
[Cu hum Ac trans]
+26.0 +15.2 51 +29 +42 душно 1017.0 931.0
нст 2 10 км 5/5 1200 м +27.0 +15.0 48 +30 +38 душно 1016.0 933.2
ЮВ 3 10 км 5/5 1200 м +27.0 +15.0 48 +30 +35 душно 1016.0 933.2
нст 0 20 км 4/4 1000 м
[Cu med, cong]
+27.9 +11.7 37 +29 +34 жарко 1015.0 928.5
Ю 6-12 10 км 5/5 1200 м +28.0 +13.0 40 +30 +31 жарко 1014.0 931.6
Ю 4 10 км 2/2 1200 м +28.0 +12.0 37 +29 +30 жарко 1014.0 931.6
Ю 4 20 км 3/1 1000 м
[Cu med, cong]
+26.9 +11.6 39 +28 +28 жарко 1015.0 928.3
Ю 3 10 км ясно +26.0 +12.0 42 +27 +27 жарко 1015.0 932.0
Ю 3 10 км ясно +25.0 +14.0 50 +27 +27 жарко 1016.0 932.7
Местоположение метеостанции Гояния аэропорт (Гояс, Бразилия): широта -16.63 долгота -49.22 высота над уровнем моря 747 м.
В архиве по умолчанию представлена погода в Гояния аэропорту за последнюю неделю. Архивные данные за месяц целиком и за предыдущие месяцы, начиная с января 2011 года, Вы можете получить, выбрав интересующий диапазон дат из раскрывающегося списка и нажав кнопку "Найти!".
*Определитесь, кто Вы:
Внимание! Время в таблицах - всемирное. Для получения местного времени необходимо прибавить поправку, которая равна -3 ч.
Смотрите также архив погоды в соседних городах и на ближайших метеорологических станциях:
Партнеры нашего сайта:      
Пояснения к столбцам:
  • Ветер - указаны скорость ветра в м/с - средняя за 10 мин, порывы в срок и между сроками (в фигурных скобках) и направление, откуда дует ветер: С - северный,
  • СВ - северо-восточный, В - восточный, ЮВ - юго-восточный, Ю - южный, ЮЗ - юго-западный, З - западный, СЗ - северо-западный.
  • Видимость - горизонтальная дальность видимости в метрах или километрах. При видимости от 1 до 10 км при отсутствии осадков обычно наблюдается дымка, при ухудшении видимости до 1 км и менее - туман. В сухую погоду видимость может ухудшаться дымом, пылью или мглою.
  • Явления - указаны атмосферные явления, наблюдавшиеся в срок или в последний час перед сроком; фигурными скобками обозначены явления, наблюдавшиеся между сроками (за 1-3 часа до срока); квадратными скобками обозначены град или гололедные отложения с указанием их диаметра в мм.
  • Облачность - указаны через наклонную черту общая и нижняя облачность в баллах и высота нижней границы облаков в метрах; квадратными скобками обозначены формы облаков: Ci - перистые, Cs - перисто-слоистые, Cc - перисто-кучевые, Ac - высококучевые, As - высокослоистые, Sc - слоисто-кучевые, Ns - слоисто-дождевые, Cu - кучевые, Cb - кучево-дождевые. Подробнее классификацию облаков см. в Атласе облаков (PDF).
  • T - Температура воздуха - температура, измеренная на высоте 2 м над землей.
  • Td - Температура точки росы - температура, при понижении до которой содержащийся в воздухе водяной пар достигнет насыщения.
  • f - Относительная влажность воздуха - влажноcть воздуха, измеренная на высоте 2 м над землей.
  • Te - Эффективная температура - температура, которую ощущает одетый по сезону человек в тени. Характеристика душности погоды. При расчете учитывается влияние влажности воздуха и скорости ветра на теплоощущения человека.
  • Tes - Эффективная температура на солнце - температура, которую ощущает человек, с поправкой на солнечный нагрев. Характеристика знойности погоды. Зависит от высоты солнца над горизонтом, облачности и скорости ветра. Ночью, в пасмурную погоду, а также при ветре 12 м/с и более поправка равна нулю.
  • P - Атмосферное давление - приведенное к уровню моря атмосферное давление.
  • Po - Атмосферное давление - измеренное на уровне метеостанции атмосферное давление.
  • Tmin - Минимальная температура - минимум температуры воздуха на высоте 2 м над землей.
  • Tmax - Максимальная температура - максимум температуры воздуха на высоте 2 м над землей.
  • R - Количество осадков - Количество выпавших осадков за период времени, мм. При наведении курсора мыши на число - период времени, за который выпало указанное количество осадков.
  • R24 - Количество осадков - Количество выпавших осадков за 24 часа, мм.
  • S - Снежный покров - Высота снежного покрова, см. При наведении курсора мыши на число - состояние снежного покрова и степень покрытия местности в баллах.